Location: Indian Hills
(32.9760°N, 85.9450°W)
Time: 17:52:35
(UTC+00:00)

Meteor 2-4 Rocket - Pass Details

Date: 09 December 2019
Orbit: 798 x 909 km, 81.2° (Epoch: 20 January)

Event Time Altitude Azimuth Distance (km) Brightness Sun altitude
Rises 00:44:34 0° 182° (S) 3,522 7.1 -26.1°
Reaches altitude 10° 00:47:02 10° 180° (S) 2,584 6.3 -26.6°
Enters shadow 00:52:21 69° 143° (SE) 965 3.8 -27.7°
